Flag for U.S.A. Weather past 2 weeks in Dover, Delaware, U.S.A.

Now
34 °F

Sunny.


Feels Like: 23 °F
Forecast: 21 / 33 °F
Wind: 16 mph from Northwest

Location: Dover Air Force Base

Current Time: Jan 28, 2015 at 4:18:42 PM

Latest Report: Jan 28, 2015 at 3:58 PM


Visibility: 10 mi

Pressure: 30.19 "Hg

Humidity: 31%

Dew point: 6 °F

Location of DoverLocation

Historic Weather in Dover — Graph

°F

Dover temperature yesterday

Maximum temperature yesterday: 34 °F (at 2:58 PM)
Minimum temperature yesterday: 25 °F (at 11:58 PM)
Average temperature yesterday: 30 °F

Past Weeks' High & Low Weather Summary

 TemperatureHumidityPressure
High49 °F (Jan 25, 12:58 PM)100% (Jan 16, 1:58 AM)30.55 "Hg (Jan 16, 1:58 AM)
Low18 °F (Jan 17, 4:58 AM)32% (Jan 28, 2:58 PM)29.35 "Hg (Jan 24, 1:58 PM)
Average33 °F82%30.01 "Hg
* Reported Jan 13 2:58 PM — Jan 28 2:58 PM, Dover, Weather by CustomWeather, © 2014

Note: Actual official high and low records may vary slightly from our data, if they occured in-between our weather recording intervals... More about our weather records

Advertising

Dover weather history for previous 24 hours

 ConditionsComfort  
Time TempWeatherWind HumidityBarometerVisibility
2:58 PM
Jan 28
34 °FSunny.14 mph32%30.16 "Hg10 mi
1:58 PM34 °FSunny.20 mph33%30.15 "Hg10 mi
12:58 PM32 °FSunny.20 mph34%30.15 "Hg10 mi
11:58 AM30 °FSunny.20 mph37%30.16 "Hg10 mi
10:58 AM29 °FSunny.18 mph39%30.17 "Hg10 mi
9:58 AM26 °FSunny.17 mph41%30.17 "Hg10 mi
8:58 AM23 °FSunny.20 mph44%30.14 "Hg10 mi
7:58 AM21 °FSunny.14 mph49%30.13 "Hg10 mi
6:58 AM20 °FClear.15 mph51%30.10 "Hg10 mi
5:58 AM20 °FClear.15 mph51%30.07 "Hg10 mi
4:58 AM20 °FClear.14 mph54%30.04 "Hg10 mi
3:58 AM20 °FClear.17 mph62%30.02 "Hg10 mi
2:58 AM20 °FClear.13 mph62%30.01 "Hg10 mi
1:58 AM21 °FClear.17 mph62%29.98 "Hg10 mi
12:58 AM23 °FClear.18 mph58%29.94 "Hg10 mi
11:58 PM
Jan 27
25 °FClear.20 mph52%29.92 "Hg10 mi
10:58 PM28 °FClear.21 mph43%29.89 "Hg10 mi
9:58 PM29 °FClear.14 mph58%29.87 "Hg10 mi
8:58 PM30 °FClear.14 mph65%29.85 "Hg10 mi
7:58 PM31 °FClear.14 mph62%29.82 "Hg10 mi
6:58 PM30 °FClear.12 mph56%29.81 "Hg10 mi
5:58 PM30 °FClear.14 mph54%29.78 "Hg10 mi
4:58 PM32 °FSunny.18 mph56%29.76 "Hg10 mi
Weather by CustomWeather, © 2014

See weather overviewHow to use our weather pages